Location: Borovka
(49.7741°N, 14.5280°E)
Time: 05:18:25
(UTC+00:00)

Cosmos 2278 Rocket - Pass Details

Date: 17 November 2025
Orbit: 841 x 843 km, 71.0° (Epoch: 10 December)

Event Time Altitude Azimuth Distance (km) Brightness Sun altitude
Rises 16:07:55 0° 179° (S) 3,384 5.6 -8.5°
Reaches altitude 10° 16:10:31 10° 171° (S) 2,453 4.8 -8.9°
Maximum altitude 16:15:34 35° 107° (ESE) 1,322 2.8 -9.6°
Drops below altitude 10° 16:20:40 10° 43° (NE) 2,469 4.1 -10.4°
Enters shadow 16:21:00 - 41° (NE) 2,586 4.2 -10.5°
